Temperature
14 14 14 15 15 14 14 14 14 14 15 15 15 15 15 15 15 15 15 15 15 15 15 15 15 15 15 15 15 15 15 15 15 15 14 14 14 14
14 14 14 14 14 14 14 14 14 14 14 15 15 14 15 15 15 15 15 15 15 15 15 15 15 15 15 15 15 15 15 15 15 15 15 15 14 15
14 14 14 14 14 14 14 14 14 14 14 14 14 14 14 15 15 15 15 15 15 16 15 15 15 15 15 15 15 15 15 15 15 15 15 15 15 15
14 14 14 14 14 14 14 14 14 14 14 14 14 14 14 14 14 14 14 15 15 15 15 15 15 15 15 15 15 15 15 15 15 15 15 15 15 15
14 14 13 13 13 13 13 13 14 13 14 13 13 13 14 14 14 14 14 14 15 15 15 15 15 15 15 15 15 15 15 14 14 14 15 15 15 15
14 14 14 13 13 13 13 13 13 13 13 13 13 13 13 14 14 14 14 14 14 14 15 15 15 15 15 15 15 15 15 14 14 14 14 15 15 15
14 14 14 14 14 13 13 13 13 13 13 13 13 13 13 13 13 13 13 13 14 14 14 14 14 15 15 15 15 15 15 14 14 14 14 14 14 14
14 14 14 14 14 14 13 13 13 13 13 13 13 13 13 13 13 13 13 13 13 13 13 13 14 14 14 14 14 15 14 14 14 14 14 14 14 14
14 14 14 14 14 13 13 13 13 13 13 13 13 13 13 13 13 12 12 12 12 12 12 13 13 13 14 14 14 14 14 14 14 14 14 13 13 14
14 14 13 13 13 13 13 13 13 13 13 13 13 13 12 12 12 12 12 12 12 12 12 12 12 13 13 13 13 13 13 13 13 13 13 13 13 13
13 13 13 13 13 13 13 13 13 13 13 13 13 13 13 13 12 12 12 12 12 12 12 12 12 12 12 12 12 13 13 13 13 13 13 13 13 12
13 13 13 13 13 13 13 13 13 13 13 13 13 13 13 13 12 12 12 12 12 12 12 11 11 11 12 12 12 12 12 12 12 13 13 12 12 12
11 12 12 13 13 13 13 13 13 13 12 13 13 13 13 13 13 12 12 12 12 11 11 11 11 11 11 11 11 11 12 12 12 12 12 12 12 12
11 11 11 12 12 12 12 12 13 13 12 12 13 13 13 13 12 12 12 12 12 11 11 11 11 11 11 11 11 11 11 11 11 11 11 11 11 11
10 11 11 11 11 11 12 12 12 12 12 12 12 12 12 12 12 12 11 11 11 11 11 11 11 11 11 11 10 10 10 10 10 10 10 10 10 10
10 10 11 11 11 11 11 12 12 12 12 12 12 12 12 11 11 11 11 11 11 11 11 11 11 10 10 10 10 10 10 10 10 10 10 10 10 10
10 10 10 10 10 10 11 11 11 11 11 11 11 11 11 11 11 11 11 11 10 10 10 10 10 10 10 10 10 10 10 10 10 10 10 10 10 10
9 9 10 10 10 10 10 10 11 11 11 11 11 11 11 10 10 10 10 10 10 10 10 10 10 10 10 10 10 9 9 9 9 9 9 9 9 9
9 9 9 9 10 10 10 10 10 10 10 10 10 10 10 10 10 10 10 9 9 9 9 9 9 9 9 9 9 9 9 9 9 8 8 8 8 9
9 9 9 9 9 9 9 10 10 10 10 10 9 9 9 9 9 9 9 9 9 9 9 9 8 8 8 8 8 8 8 8 8 8 8 8 8 8
8 8 8 8 9 9 9 9 9 9 9 9 9 9 9 9 9 8 8 8 8 8 8 8 8 8 8 8 8 8 7 7 7 7 7 7 7 7
8 8 8 8 8 8 8 8 8 8 8 8 8 8 8 8 8 8 8 8 8 7 7 7 7 7 7 7 7 7 7 6 6 6 6 6 6 6
7 7 8 8 8 8 7 8 7 7 7 7 7 7 7 7 7 7 7 7 7 7 7 7 7 7 6 6 6 6 6 6 6 6 6 6 6 5
Wind_Speed
7 8 8 8 8 9 9 9 8 7 6 6 5 4 5 7 8 11 12 15 15 12 10 9 7 7 6 5 4 3 4 5 6 6 6 6 6 6
5 7 8 8 8 9 9 9 9 9 6 4 4 4 3 4 7 11 12 14 16 15 14 12 11 10 9 8 7 6 5 6 7 8 9 8 7 6
6 6 8 9 8 8 8 9 8 8 8 5 4 5 5 6 4 8 10 11 13 19 17 15 14 13 12 10 9 9 8 8 8 8 9 10 10 8
6 6 7 7 9 9 8 10 9 9 8 8 6 6 8 7 6 7 7 9 10 15 19 18 17 16 15 14 12 12 11 10 10 9 9 10 10 8
6 6 7 7 8 8 9 9 8 8 8 8 7 6 6 5 5 6 8 7 9 9 15 18 19 18 18 17 17 16 15 14 13 11 10 10 9 7
6 5 5 6 7 7 7 8 8 8 8 8 7 6 5 4 4 5 6 6 7 8 11 13 16 20 21 21 20 19 19 18 16 14 12 11 10 9
6 6 4 2 4 5 5 5 5 5 5 5 6 5 5 4 4 5 6 6 6 7 8 9 10 12 15 20 23 23 21 20 19 16 14 13 13 12
7 6 4 5 5 5 4 5 5 4 3 3 4 4 5 5 5 4 4 4 4 4 6 8 8 9 10 12 15 20 22 21 20 18 16 15 15 14
7 6 4 4 4 4 5 7 6 4 4 3 3 3 3 4 5 5 4 4 4 1 2 6 6 8 9 10 9 12 15 18 19 19 18 17 16 15
7 7 7 7 5 3 4 4 2 3 4 5 3 2 1 1 2 2 2 3 2 1 2 3 4 5 6 8 8 11 13 15 17 18 18 18 18 17
5 6 7 7 5 1 6 5 4 2 4 5 5 3 0 1 2 2 3 3 3 3 3 2 3 3 5 4 2 4 8 11 13 15 16 17 17 16
2 3 1 3 2 3 7 7 6 3 2 3 4 6 6 7 8 6 3 3 3 2 3 2 1 1 2 2 3 4 4 5 9 12 14 15 15 13
2 2 1 2 3 4 8 7 4 4 3 2 1 1 2 2 3 3 3 2 2 1 3 4 2 1 1 2 2 2 3 4 4 6 11 15 16 15
4 3 1 2 5 6 6 4 3 4 3 2 2 2 2 2 2 2 2 2 1 1 4 5 3 2 2 2 2 2 3 4 3 4 4 4 12 17
4 4 5 5 6 6 6 4 5 4 3 3 3 3 3 3 3 2 1 1 1 2 3 3 2 1 2 3 4 4 4 3 2 3 3 3 4 4
4 3 5 5 4 2 1 4 4 3 3 4 4 4 3 3 2 1 1 1 1 1 2 2 2 2 3 4 5 6 5 4 4 5 5 5 5 6
4 1 1 2 3 3 2 2 3 4 4 4 4 4 3 2 2 1 1 2 2 2 2 1 2 3 5 6 6 6 5 5 5 4 4 5 6 6
5 4 4 3 2 2 3 3 3 3 3 3 3 3 2 1 1 1 1 2 3 3 3 3 3 4 5 5 4 5 5 5 5 4 4 5 7 6
10 8 7 7 6 5 5 5 5 5 4 4 4 4 3 3 3 3 3 4 4 4 4 4 4 4 6 7 2 2 6 6 6 6 5 5 8 8
10 9 9 8 8 7 7 6 6 5 5 5 5 4 4 4 4 4 5 5 5 5 5 4 4 5 5 6 5 4 2 6 6 7 7 7 8 9
9 9 8 8 8 8 7 7 6 6 6 5 5 5 5 5 4 5 5 5 5 5 6 5 5 4 5 5 5 4 3 2 4 5 6 6 7 6
7 7 7 8 7 7 7 6 6 6 6 6 5 5 5 5 4 5 5 5 5 5 5 5 5 4 4 4 6 6 5 4 3 2 2 2 4 5
7 7 7 7 7 6 6 6 6 5 4 4 4 4 4 4 4 4 5 5 5 6 6 6 5 5 4 5 5 5 6 6 4 4 2 2 5 8
Wind_Direction
240 245 248 255 255 250 243 234 231 230 224 231 217 202 205 220 193 211 221 196 200 208 212 213 210 207 207 213 228 259 292 305 303 298 293 299 312 325
238 247 249 249 251 251 244 238 234 237 233 219 215 194 174 216 208 230 230 179 196 207 212 215 217 217 218 222 229 243 263 280 289 293 292 288 291 299
229 238 245 247 247 247 246 241 235 230 234 232 229 231 235 250 219 234 233 217 212 204 210 215 219 221 224 228 233 239 250 262 274 284 291 287 281 277
244 246 250 248 248 246 242 239 234 229 231 234 226 228 243 256 262 255 241 234 236 198 204 214 220 223 225 228 233 239 245 253 262 271 280 283 278 267
244 253 263 263 261 252 243 240 235 232 227 234 236 220 229 234 244 252 248 246 244 211 204 217 222 226 230 231 233 237 241 246 253 259 267 275 275 264
236 245 261 266 265 267 257 249 240 233 225 229 234 226 216 206 226 239 244 238 243 236 223 223 223 225 231 234 235 236 238 241 245 251 257 262 262 257
231 236 245 294 325 302 296 288 268 247 232 229 229 224 209 183 209 223 243 252 252 242 243 230 225 229 229 232 235 238 237 236 238 241 247 251 251 250
229 233 218 219 211 225 271 304 313 288 253 226 218 217 210 203 205 208 230 245 258 229 242 251 238 242 241 244 223 222 229 232 233 236 239 243 244 245
231 229 226 234 241 236 204 222 238 236 258 271 236 218 206 197 198 204 216 235 253 286 250 270 254 250 255 248 221 220 229 233 234 233 234 236 237 238
229 232 228 229 224 259 250 249 248 217 215 241 261 257 239 182 192 199 198 229 252 232 215 270 272 264 274 262 206 222 237 241 241 239 235 234 233 234
237 239 243 240 123 261 266 264 260 236 194 246 298 304 334 185 206 195 189 213 235 217 190 235 312 313 299 288 150 203 241 242 242 241 238 234 232 234
250 235 222 294 71 251 257 262 268 277 261 209 220 221 228 212 207 233 235 235 246 231 174 193 256 333 313 355 0 347 303 243 240 241 239 235 227 234
286 252 180 84 314 280 276 277 304 316 290 274 196 133 138 159 181 203 211 229 246 218 162 175 193 199 258 296 298 301 312 320 304 260 233 231 226 228
312 307 332 358 309 291 274 301 325 274 257 216 153 135 129 126 129 149 162 170 182 183 170 179 197 207 236 262 269 263 274 284 303 312 316 210 226 233
306 311 304 294 283 257 231 248 238 224 201 182 152 136 127 128 129 126 119 122 134 119 135 174 215 246 270 289 304 305 312 308 310 313 312 300 280 247
295 262 242 245 250 288 200 199 203 185 180 163 141 135 138 142 134 100 48 10 6 120 137 167 204 245 269 276 286 295 302 301 307 307 303 294 278 258
332 314 243 184 166 151 150 151 158 161 157 142 139 140 148 151 134 104 10 342 341 343 343 345 300 278 271 277 281 286 297 299 297 298 300 298 288 268
20 43 41 46 69 98 117 119 117 117 120 120 115 114 108 97 86 76 6 339 339 343 348 342 326 308 286 260 239 281 296 304 312 310 296 296 300 304
47 43 40 40 43 51 62 74 70 64 65 70 70 65 56 44 30 21 11 359 352 343 338 333 328 322 312 314 318 242 316 324 325 320 313 300 300 309
43 41 40 39 41 45 49 58 63 62 64 67 66 58 43 33 27 17 14 4 349 338 335 344 352 344 324 319 318 319 314 328 334 326 324 320 306 295
42 40 38 38 40 43 45 49 53 54 52 51 46 37 30 28 28 18 8 7 344 342 342 347 358 327 305 300 302 318 1 34 340 325 328 323 318 317
43 39 36 37 37 38 38 40 46 45 41 39 33 25 16 13 17 11 2 357 356 352 344 343 345 338 328 319 323 329 339 346 341 312 290 286 318 323
37 38 36 31 31 30 30 30 33 33 29 25 22 13 7 8 4 3 4 5 2 358 353 349 348 343 335 329 330 337 344 351 351 346 352 209 257 270
Height
1527 1527 1527 1527 1527 1527 1528 1530 1532 1533 1535 1537 1539 1540 1540 1540 1541 1541 1542 1543 1544 1544 1545 1546 1546 1547 1547 1547 1547 1546 1545 1544 1543 1542 1541 1540 1539 1538
1523 1523 1523 1523 1523 1523 1524 1525 1527 1529 1530 1532 1534 1536 1536 1537 1538 1539 1540 1539 1540 1541 1542 1543 1543 1544 1544 1545 1545 1544 1544 1542 1541 1540 1538 1537 1536 1536
1521 1521 1521 1520 1519 1520 1520 1521 1522 1524 1525 1527 1529 1531 1533 1535 1536 1536 1537 1536 1537 1538 1539 1540 1540 1541 1541 1542 1542 1542 1541 1540 1539 1538 1536 1535 1534 1533
1520 1520 1519 1518 1516 1516 1516 1517 1518 1519 1521 1522 1523 1525 1528 1530 1532 1533 1533 1534 1535 1534 1535 1536 1537 1538 1538 1539 1539 1539 1538 1537 1536 1535 1534 1532 1531 1530
1519 1518 1518 1516 1514 1513 1513 1513 1513 1514 1515 1517 1518 1520 1522 1524 1526 1528 1529 1530 1530 1530 1531 1532 1533 1534 1534 1535 1535 1535 1535 1534 1533 1533 1531 1530 1529 1527
1517 1516 1516 1514 1512 1512 1510 1510 1510 1510 1511 1512 1514 1516 1517 1519 1521 1523 1524 1525 1525 1526 1526 1527 1528 1529 1529 1530 1531 1531 1530 1530 1529 1529 1528 1527 1526 1524
1515 1515 1514 1513 1511 1510 1509 1508 1508 1508 1508 1508 1509 1511 1512 1514 1515 1517 1519 1520 1520 1521 1522 1522 1523 1523 1524 1525 1525 1526 1525 1525 1525 1524 1524 1523 1522 1521
1513 1513 1513 1511 1510 1509 1508 1507 1506 1506 1506 1506 1506 1507 1508 1509 1511 1513 1514 1515 1515 1516 1517 1518 1518 1519 1520 1520 1520 1520 1520 1520 1520 1520 1520 1519 1518 1517
1510 1511 1511 1510 1509 1509 1508 1507 1506 1505 1505 1505 1505 1505 1506 1506 1507 1509 1510 1510 1511 1512 1512 1513 1514 1514 1515 1516 1515 1515 1515 1515 1515 1515 1515 1515 1514 1513
1506 1507 1508 1508 1508 1508 1508 1508 1507 1506 1505 1504 1505 1504 1504 1505 1506 1507 1507 1507 1508 1508 1508 1508 1509 1509 1510 1511 1510 1510 1511 1511 1510 1510 1510 1510 1509 1509
1502 1503 1504 1505 1505 1505 1506 1506 1506 1506 1504 1504 1503 1503 1503 1503 1504 1504 1505 1505 1505 1505 1505 1505 1504 1504 1505 1506 1505 1505 1506 1506 1506 1505 1505 1505 1505 1504
1499 1499 1499 1501 1501 1502 1503 1504 1505 1505 1504 1503 1502 1502 1501 1501 1501 1502 1502 1503 1502 1502 1502 1502 1502 1502 1502 1501 1501 1502 1502 1501 1501 1501 1501 1501 1500 1500
1496 1496 1496 1496 1498 1499 1500 1501 1502 1502 1502 1502 1502 1501 1500 1500 1500 1499 1500 1500 1500 1500 1500 1500 1500 1500 1500 1499 1499 1499 1498 1498 1497 1496 1496 1496 1495 1495
1493 1493 1493 1493 1494 1495 1496 1497 1498 1499 1500 1500 1500 1500 1499 1499 1499 1499 1499 1499 1499 1499 1498 1498 1498 1499 1498 1498 1497 1496 1495 1494 1493 1492 1492 1490 1490 1490
1490 1489 1489 1490 1491 1492 1493 1494 1495 1496 1497 1498 1499 1498 1498 1498 1498 1498 1498 1498 1498 1497 1497 1497 1497 1497 1497 1496 1496 1495 1493 1492 1491 1489 1488 1487 1485 1485
1487 1486 1486 1487 1488 1489 1490 1491 1493 1494 1495 1496 1497 1497 1498 1498 1498 1498 1498 1498 1498 1497 1497 1496 1496 1496 1495 1494 1493 1492 1491 1489 1488 1486 1484 1483 1482 1480
1486 1486 1486 1486 1487 1487 1488 1489 1491 1493 1494 1496 1496 1497 1497 1498 1498 1498 1498 1497 1497 1497 1496 1495 1495 1494 1493 1492 1490 1489 1488 1487 1485 1483 1481 1480 1479 1477
1488 1487 1487 1487 1487 1488 1489 1490 1491 1493 1494 1496 1497 1497 1498 1498 1498 1498 1497 1497 1496 1495 1495 1494 1493 1492 1491 1489 1488 1487 1486 1484 1482 1480 1478 1476 1475 1474
1491 1490 1490 1489 1489 1490 1491 1492 1493 1494 1496 1497 1498 1498 1498 1498 1498 1498 1497 1496 1496 1495 1494 1492 1491 1490 1489 1488 1486 1484 1483 1481 1479 1477 1475 1473 1471 1470
1496 1495 1494 1494 1493 1494 1494 1495 1496 1497 1498 1498 1499 1499 1499 1498 1498 1497 1496 1495 1495 1494 1492 1491 1489 1488 1487 1486 1483 1482 1480 1478 1476 1474 1472 1469 1467 1465
1501 1500 1499 1498 1498 1498 1498 1498 1499 1499 1499 1500 1499 1499 1499 1498 1497 1497 1496 1495 1494 1492 1491 1490 1488 1486 1484 1483 1481 1479 1477 1475 1473 1471 1468 1466 1464 1462
1506 1504 1503 1502 1502 1501 1501 1501 1501 1500 1500 1499 1499 1499 1498 1498 1497 1496 1495 1494 1493 1491 1490 1488 1486 1484 1483 1481 1479 1477 1475 1473 1470 1468 1466 1465 1462 1460
1508 1507 1505 1504 1503 1502 1501 1501 1500 1500 1499 1499 1498 1498 1497 1497 1496 1496 1495 1493 1492 1490 1488 1486 1484 1482 1481 1479 1477 1475 1473 1471 1469 1468 1466 1464 1462 1459